Regional Weather Roundup
Issued by NWS Upton, NY

Current Version | Previous Version | Graphics & Text | Print | Product List | Glossary Off
Versions: 1 2 3 4 5 6 7 8 9 10 11 12 13 14 15 16 17 18 19 20 21 22 23 24 25 26 27 28 29 30 31 32 33 34 35 36 37 38 39 40 41 42 43 44 45 46 47 48 49 50

000
ASUS41 KOKX 070608
RWROKX

REGIONAL WEATHER ROUNDUP
NATIONAL WEATHER SERVICE NEW YORK NY
200 AM EDT TUE JUL 07 2015

NOTE: "FAIR" INDICATES FEW OR NO CLOUDS BELOW 12,000 FEET WITH NO
SIGNIFICANT WEATHER AND/OR OBSTRUCTIONS TO VISIBILITY.

NYZ071-072-176-178-NJZ106-104-070700-
NEW YORK CITY METRO AREA


CITY           SKY/WX    TMP DP  RH WIND       PRES   REMARKS
CENTRAL PARK   CLOUDY    76  69  79 CALM      30.10F
LAGUARDIA APRT CLOUDY    75  70  84 S6        30.07F
KENNEDY INTL   CLOUDY    75  70  84 S8        30.08F
NEWARK/LIBERTY MOCLDY    75  70  84 NE5       30.06F
BRNX BOT. GARD   N/A     73  68  83 S2        30.07F
TETERBORO      CLOUDY    76  70  82 SE5       30.05F
$$

NYZ177-179-078>081-070700-
LONG ISLAND NEW YORK

CITY           SKY/WX    TMP DP  RH WIND       PRES   REMARKS
FARMINGDALE    CLOUDY    74  70  87 S6        30.09S
ISLIP          MOCLDY    73  69  87 S8        30.07S
SHIRLEY        CLEAR     73  68  84 S6        30.09F
WESTHAMPTON    CLEAR     72  70  93 S6        30.10F
MONTAUK POINT    N/A     73  69  87 CALM      30.12R
$$

NYZ052-065-067-070700-
HUDSON VALLEY

CITY           SKY/WX    TMP DP  RH WIND       PRES   REMARKS
WHITE PLAINS   CLOUDY    72  66  81 E5        30.08F
NEWBURGH       PTCLDY    72  66  83 VRB6      30.09F
MONTGOMERY     CLOUDY    70  67  90 CALM      30.07F
POUGHKEEPSIE   MOCLDY    73  65  75 SE6       30.06F
ALBANY         MOCLDY    73  65  75 S5        30.06S
$$

NJZ001-105-106-008-010-013-015-019>022-104-070700-
NEW JERSEY

CITY           SKY/WX    TMP DP  RH WIND       PRES   REMARKS
NEWARK/LIBERTY MOCLDY    75  70  84 NE5       30.06F
TETERBORO      CLOUDY    76  70  82 SE5       30.05F
CALDWELL       CLOUDY    73  67  81 CALM      30.07F
MORRISTOWN     MOCLDY    72  68  88 CALM      30.07F
SOMERVILLE     CLOUDY    71  69  93 NW3       30.03F FOG
SUSSEX         CLOUDY    72  67  84 CALM      30.06F
ANDOVER          N/A     71  69  93 CALM      30.07F
TRENTON        CLOUDY    75  71  87 S9        30.04F
MILLVILLE      CLOUDY    77  74  90 VRB5      30.05S
ATLANTIC CITY  NOT AVBL
WRIGHTSTOWN    MOCLDY    73  73 100 SE3       30.02F
TOMS RIVER     CLOUDY    75  72  88 S6        30.06F
BELMAR         CLOUDY    75  70  83 SE5       30.06F
$$

PAZ047>061-062-071-070700-
EASTERN PENNSYLVANIA

CITY           SKY/WX    TMP DP  RH WIND       PRES   REMARKS
PHILADELPHIA   CLOUDY    76  72  87 SE7       30.03F
ALLENTOWN      CLOUDY    74  71  91 SE6       30.04F
SCRANTON       MOCLDY    75  67  76 CALM      30.04F
$$

CTZ002-004>006-009-010-012-RIZ004-006-007-MAZ004-011-015-070700-
SOUTHERN NEW ENGLAND
 IN CT

CITY           SKY/WX    TMP DP  RH WIND       PRES   REMARKS
BRADLEY INTL   MOCLDY    70  64  81 SE6       30.09S
HARTFORD       CLOUDY    70  65  84 SE10      30.09F
DANBURY        PTCLDY    69  62  78 CALM      30.11F
WTRBRY/OXFORD  CLOUDY    70  63  78 S3        30.12F
BRIDGEPORT     CLOUDY    73  67  81 CALM      30.09F
MERIDEN        CLOUDY    70  65  84 CALM      30.10S
NEW HAVEN      CLOUDY    70  67  90 CALM      30.09F
CHESTER        CLOUDY    70  64  83 CALM      30.12S
GROTON         CLOUDY    69  65  86 NE5       30.11R
WILLIMANTIC    CLOUDY    67  64  90 CALM      30.12S

 IN RI

CITY           SKY/WX    TMP DP  RH WIND       PRES   REMARKS
PROVIDENCE     CLEAR     67  64  90 CALM      30.12S
BLOCK ISLAND   CLOUDY    70  66  88 CALM      30.12R
WESTERLY       CLOUDY    67  64  90 CALM      30.12S

 IN MA

CITY           SKY/WX    TMP DP  RH WIND       PRES   REMARKS
BOSTON         PTCLDY    67  63  87 S6        30.11F
WORCESTER      CLEAR     66  61  84 SW6       30.14R
WESTFIELD      CLOUDY    69  64  84 SE5       30.10S
PROVINCETOWN   CLEAR     64   9  11 S7        30.13S
NANTUCKET      CLEAR     64  61  90 SE7       30.13S
$$

ANZ330-335-338-340-345-350-353-355-070700-
COASTAL MARINE OBSERVATIONS


STATION/POSITION TIME  SKY/WX   TEMP    WIND        PRES    VSBY  WAVE
                                AIR SEA DIR/SP/G                  HT/PER
                 (UTC)          (F)     (DEG/KT/KT) (MB)    (MI)  (FT/S)
NY HARB ENTRANCE 0550            72 71  150/ 10/ 12 1017.7          2/ 4
4S FIRE IS       0503               69                N/A           2/13
20S FIRE ISLAND  0550            72 71  170/ 10/ 12 1018.2          2/ 4
GREAT SOUTH BAY  0500            73 76  200/ 10/ 12   N/A
23SW MTP         0550            72 69  200/ 12/ 14 1018.4          2/ 7
HUDSON CANYON    NOT AVBL
KINGS POINT      0500            73 68  170/  3/  6 1018.1
CENTRAL LI SOUND NOT AVBL
EASTERN LI SOUND 0500            66 64   60/  6/  8   N/A
ROBBINS REEF     0500            72     190/  5/  6 1017.4
$$


>>>>>>>>>>>>>>>>>>>>>>>>>>>> KEY <<<<<<<<<<<<<<<<<<<<<<<<<<<
>                                                          <
>     SKY/WX - SKY CONDITION/PRESENT WEATHER               <
>     TMP    - TEMPERATURE IN FAHRENHEIT                   <
>     DP     - DEWPOINT IN FAHRENHEIT                      <
>     RH     - RELATIVE HUMIDITY IN PERCENT                <
>     WIND   - DIRECTION AND SPEED IN MPH                  <
>     PRES   - MEAN SEA LEVEL PRESSURE IN INCHES OF HG     <
>     WCI    - WIND CHILL INDEX                            <
>     VSB    - VISIBILITY IN MILES                         <
>     HX     - HEAT INDEX                                  <
>     TC     - TEMPERATURE IN CELSIUS                      <
>     VRB    - VARIABLE WIND DIRECTION                     <
>                                                          <
>>>>>>>>>>>>>>>>>>>>>>>>>>>> KEY <<<<<<<<<<<<<<<<<<<<<<<<<<<




USA.gov is the U.S. government's official web portal to all federal, state and local government web resources and services.